GW2041 Weather Reports


Display with metric or nautical units.
time (UTC)temp
F
wind
direction
speed
MPH
gust
MPH
rain 1hr
in
rain 24hr
in
rain mn
in
humidity
%
barometer
mb
20260509083726 61 270 2.0 5.0 0.00 0.00 0.00 72 1015.6
20260509082245 63 338 0.0 2.0 0.00 0.00 0.00 75 1015.6
20260509081245 60 45 2.0 8.0 0.00 0.00 0.00 77 1015.5
20260509080246 59 315 1.0 4.0 0.00 0.00 0.00 78 1015.5
20260509075247 59 135 1.0 3.0 0.00 0.00 0.00 82 1015.5
20260509074724 56 180 0.0 3.0 0.00 0.00 0.00 88 1015.5
20260509073247 54 23 1.0 4.0 0.00 0.00 0.00 88 1015.3
20260509072243 52 68 2.0 4.0 0.00 0.00 0.00 89 1015.3
20260509071241 51 68 1.0 4.0 0.00 0.00 0.00 90 1015.5
20260509070239 50 315 1.0 4.0 0.00 0.00 0.00 91 1015.5
20260509065237 49 113 0.0 3.0 0.00 0.00 0.00 91 1015.5
20260509064240 49 23 0.0 1.0 0.00 0.00 0.00 91 1015.5
20260509063238 48 45 1.0 3.0 0.00 0.00 0.00 92 1015.4
20260509062237 47 45 0.0 3.0 0.00 0.00 0.00 92 1015.4
20260509061733 46 23 0.0 0.0 0.00 0.00 0.00 92 1015.4
20260509060238 46 45 0.0 0.0 0.00 0.00 0.00 92 1015.4
20260509055235 45 23 0.0 0.0 0.00 0.00 0.00 92 1015.3
20260509054237 44 23 0.0 0.0 0.00 0.00 0.00 92 1015.3
20260509053234 44 68 0.0 1.0 0.00 0.00 0.00 91 1015.1
20260509052233 43 23 0.0 2.0 0.00 0.00 0.00 91 1015.1
20260509051236 42 68 0.0 2.0 0.00 0.00 0.00 91 1015.0
20260509050235 41 45 0.0 2.0 0.00 0.00 0.00 91 1015.0
20260509044238 41 23 0.0 0.0 0.00 0.00 0.00 90 1015.0
20260509043705 40 45 0.0 0.0 0.00 0.00 0.00 90 1015.2
20260509042232 40 45 0.0 0.0 0.00 0.00 0.00 90 1015.2
20260509041236 40 23 0.0 0.0 0.00 0.00 0.00 90 1015.3
20260509040335 40 23 0.0 0.0 0.00 0.00 0.00 90 1015.3
20260509035336 40 23 0.0 0.0 0.00 0.00 0.00 90 1015.3
20260509034335 40 23 0.0 0.0 0.00 0.00 0.00 89 1015.3
20260509033820 41 0 0.0 0.0 0.00 0.00 0.00 89 1015.5
20260509032333 40 0 0.0 0.0 0.00 0.00 0.00 89 1015.5
20260509031332 40 68 0.0 0.0 0.00 0.00 0.00 89 1015.6
20260509025333 41 68 0.0 0.0 0.00 0.00 0.00 89 1015.8
20260509024807 41 68 0.0 0.0 0.00 0.00 0.00 88 1015.8
20260509023333 41 68 0.0 0.0 0.00 0.00 0.00 88 1015.8
20260509022808 41 68 0.0 0.0 0.00 0.00 0.00 88 1015.8
20260509021333 42 68 0.0 0.0 0.00 0.00 0.00 88 1015.7
20260509020333 42 68 0.0 0.0 0.00 0.00 0.00 87 1015.7
20260509015330 42 68 0.0 0.0 0.00 0.00 0.00 87 1016.0
20260509014827 42 68 0.0 0.0 0.00 0.00 0.00 87 1016.0
20260509013330 42 68 0.0 0.0 0.00 0.00 0.00 87 1015.9
20260509012334 43 68 0.0 0.0 0.00 0.00 0.00 87 1015.9
20260509011330 43 68 0.0 0.0 0.00 0.00 0.00 86 1016.5
20260509010808 43 68 0.0 0.0 0.00 0.00 0.00 86 1016.5
20260509005330 43 68 0.0 0.0 0.00 0.00 0.00 86 1016.8
20260509004330 43 68 0.0 0.0 0.00 0.00 0.00 85 1016.8
20260509003329 44 68 0.0 0.0 0.00 0.00 0.00 85 1016.1
20260509002326 44 68 0.0 0.0 0.00 0.00 0.00 85 1016.1
20260509001328 45 68 0.0 0.0 0.00 0.00 0.00 85 1016.1
20260509000811 45 68 0.0 0.0 0.00 0.00 0.00 84 1016.1
20260508235819 44 68 0.0 0.0 0.00 0.00 0.00 84 1016.3
20260508234328 45 68 0.0 0.0 0.00 0.00 0.00 83 1016.3
20260508233330 45 68 0.0 0.0 0.00 0.00 0.00 83 1016.3
20260508232327 45 68 0.0 0.0 0.00 0.00 0.00 82 1016.3
20260508231804 45 68 0.0 0.0 0.00 0.00 0.00 82 1016.7
20260508230327 46 68 0.0 0.0 0.00 0.00 0.00 81 1016.7
20260508225326 46 68 0.0 0.0 0.00 0.00 0.00 81 1016.6
20260508224325 46 68 0.0 0.0 0.00 0.00 0.00 80 1016.6
20260508223328 47 68 0.0 0.0 0.00 0.00 0.00 80 1016.7
20260508222325 47 68 0.0 0.0 0.00 0.00 0.00 79 1016.7
20260508221325 47 68 0.0 0.0 0.00 0.00 0.00 79 1017.1
20260508220329 48 68 0.0 0.0 0.00 0.00 0.00 78 1017.1
20260508215322 48 68 0.0 0.0 0.00 0.00 0.00 78 1017.0
20260508214759 48 45 0.0 0.0 0.00 0.00 0.00 77 1017.0
20260508213327 49 23 0.0 0.0 0.00 0.00 0.00 77 1017.3
20260508212225 49 68 0.0 0.0 0.00 0.00 0.00 76 1017.3
20260508211230 49 338 0.0 0.0 0.00 0.00 0.00 75 1017.3
20260508210226 49 338 0.0 0.0 0.00 0.00 0.00 74 1017.3
20260508205225 50 45 0.0 0.0 0.00 0.00 0.00 74 1017.1
20260508204227 50 338 0.0 0.0 0.00 0.00 0.00 73 1017.1
20260508203707 50 315 0.0 0.0 0.00 0.00 0.00 72 1017.0
20260508202223 51 23 0.0 0.0 0.00 0.00 0.00 71 1017.0
20260508201223 51 45 0.0 2.0 0.00 0.00 0.00 69 1016.8
20260508200709 51 68 0.0 2.0 0.00 0.00 0.00 69 1016.8
20260508195225 52 23 0.0 2.0 0.00 0.00 0.00 67 1016.7
20260508194223 53 68 0.0 0.0 0.00 0.00 0.00 66 1016.7
20260508193226 54 45 0.0 0.0 0.00 0.00 0.00 65 1016.4
20260508192220 54 45 0.0 0.0 0.00 0.00 0.00 63 1016.4
20260508191224 55 23 0.0 0.0 0.00 0.00 0.00 61 1016.4
20260508190230 56 23 0.0 1.0 0.00 0.00 0.00 59 1016.4
20260508185222 57 23 0.0 0.0 0.00 0.00 0.00 58 1016.4
20260508184224 57 23 0.0 0.0 0.00 0.00 0.00 57 1016.4
20260508183226 58 293 1.0 4.0 0.00 0.00 0.00 56 1016.2
20260508182223 59 338 1.0 4.0 0.00 0.00 0.00 55 1016.2
20260508181223 60 45 1.0 4.0 0.00 0.00 0.00 54 1016.1
20260508180224 61 90 1.0 4.0 0.00 0.00 0.00 53 1016.1
20260508175221 62 0 2.0 3.0 0.00 0.00 0.00 52 1016.1
20260508174220 62 23 2.0 4.0 0.00 0.00 0.00 52 1016.1
20260508173224 62 68 1.0 3.0 0.00 0.00 0.00 52 1016.1
20260508172706 62 23 1.0 3.0 0.00 0.00 0.00 51 1016.1
20260508171220 65 338 2.0 4.0 0.00 0.00 0.00 48 1016.0
20260508170223 66 158 2.0 7.0 0.00 0.00 0.00 48 1016.0
20260508165219 67 23 2.0 4.0 0.00 0.00 0.00 49 1016.1
20260508164218 66 0 1.0 3.0 0.00 0.00 0.00 51 1016.1
20260508163223 62 23 1.0 3.0 0.00 0.00 0.00 53 1016.0
20260508162218 62 180 1.0 2.0 0.00 0.00 0.00 52 1016.0
20260508161655 64 338 2.0 4.0 0.00 0.00 0.00 50 1016.0
20260508160655 67 23 4.0 0.0 0.00 0.00 0.00 48 1016.0
20260508155820 68 45 3.0 9.0 0.00 0.00 0.00 48 1015.7
20260508153820 67 23 4.0 8.0 0.00 0.00 0.00 48 1015.7
20260508152817 65 23 3.0 6.0 0.00 0.00 0.00 52 1015.7
20260508152249 63 45 2.0 4.0 0.00 0.00 0.00 52 1015.6
20260508150815 65 338 2.0 7.0 0.00 0.00 0.00 49 1015.6
20260508145815 68 158 2.0 5.0 0.00 0.00 0.00 48 1015.8
20260508144815 67 23 2.0 4.0 0.00 0.00 0.00 50 1015.8
20260508143817 66 315 2.0 5.0 0.00 0.00 0.00 50 1015.6
20260508142817 66 23 2.0 5.0 0.00 0.00 0.00 51 1015.6
20260508141814 68 23 2.0 6.0 0.00 0.00 0.00 48 1015.6
20260508140812 67 315 1.0 3.0 0.00 0.00 0.00 54 1015.6
20260508135813 65 338 2.0 7.0 0.00 0.00 0.00 53 1015.6
20260508134818 65 23 3.0 9.0 0.00 0.00 0.00 55 1015.6
20260508133813 63 135 3.0 9.0 0.00 0.00 0.00 55 1015.5
20260508132813 63 68 2.0 5.0 0.00 0.00 0.00 56 1015.5
20260508131813 62 0 3.0 11.0 0.00 0.00 0.00 55 1015.6
20260508130813 64 68 4.0 11.0 0.00 0.00 0.00 55 1015.6
20260508125814 63 158 3.0 4.0 0.00 0.00 0.00 56 1015.6
20260508124811 63 338 3.0 3.0 0.00 0.00 0.00 55 1015.6
20260508123812 63 23 3.0 6.0 0.00 0.00 0.00 55 1015.7
20260508122811 66 315 2.0 6.0 0.00 0.00 0.00 55 1015.7
20260508121810 64 23 3.0 8.0 0.00 0.00 0.00 56 1015.4
20260508120811 65 68 3.0 5.0 0.00 0.00 0.00 55 1015.4
20260508115806 64 23 4.0 6.0 0.00 0.00 0.00 56 1015.5
20260508114805 65 23 4.0 9.0 0.00 0.00 0.00 55 1015.5
20260508113810 64 315 2.0 3.0 0.00 0.00 0.00 57 1015.4
20260508112804 62 225 3.0 7.0 0.00 0.00 0.00 57 1015.4
20260508111806 63 23 2.0 5.0 0.00 0.00 0.00 58 1015.5
20260508110810 63 315 2.0 3.0 0.00 0.00 0.00 59 1015.5
20260508105804 62 338 3.0 7.0 0.00 0.00 0.00 59 1015.6
20260508105237 61 68 3.0 5.0 0.00 0.00 0.00 61 1015.6
20260508103806 61 23 2.0 6.0 0.00 0.00 0.00 61 1015.3
20260508102802 62 338 2.0 5.0 0.00 0.00 0.00 60 1015.3
20260508101801 62 23 2.0 4.0 0.00 0.00 0.00 61 1015.2
20260508100805 65 23 3.0 0.0 0.00 0.00 0.00 57 1015.2
20260508100315 62 45 2.0 4.0 0.00 0.00 0.00 58 1015.2
20260508095317 63 315 3.0 7.0 0.00 0.00 0.00 58 1015.3
20260508094316 65 23 3.0 6.0 0.00 0.00 0.00 57 1015.3
20260508093314 65 338 3.0 11.0 0.00 0.00 0.00 59 1015.5
20260508092315 63 45 2.0 5.0 0.00 0.00 0.00 62 1015.5
20260508091750 62 248 3.0 7.0 0.00 0.00 0.00 63 1015.5
20260508090305 61 135 4.0 11.0 0.00 0.00 0.00 62 1015.5
20260508085306 62 23 2.0 6.0 0.00 0.00 0.00 62 1015.6